This is the latest recevied weather packets stored in our database for station/object W3TMB. If no packets are shown the sender has not sent any weather packets the latest 10 day(s).
| Time | Temp. | Humidity | Pressure | Rain* | Wind** | Luminosity | Snow |
|---|---|---|---|---|---|---|---|
| 1777791195 | 5° C | 66% | 1011.4 hPa | 0 mm | - | 0 W/m² | - |
| 1777790892 | 5° C | 65% | 1011.4 hPa | 0 mm | - | 0 W/m² | - |
| 1777790589 | 5.56° C | 64% | 1011.8 hPa | 0 mm | - | 0 W/m² | - |
| 1777790286 | 5.56° C | 65% | 1011.7 hPa | 0 mm | - | 0 W/m² | - |
| 1777789985 | 5.56° C | 64% | 1011.4 hPa | 0 mm | - | 0 W/m² | - |
| 1777789682 | 5.56° C | 64% | 1011.4 hPa | 0 mm | - | 0 W/m² | - |
| 1777789381 | 5.56° C | 64% | 1011.5 hPa | 0 mm | - | 0 W/m² | - |
| 1777789078 | 5.56° C | 63% | 1011.6 hPa | 0 mm | - | 0 W/m² | - |
| 1777788775 | 6.11° C | 63% | 1011.3 hPa | 0 mm | - | 0 W/m² | - |
| 1777788471 | 6.11° C | 63% | 1011.4 hPa | 0 mm | - | 0 W/m² | - |
| 1777788164 | 6.11° C | 63% | 1011.6 hPa | 0 mm | - | 0 W/m² | - |
| 1777787860 | 6.11° C | 62% | 1011.6 hPa | 0 mm | - | 0 W/m² | - |
| 1777787556 | 6.11° C | 63% | 1011.7 hPa | 0 mm | - | 0 W/m² | - |
| 1777787251 | 6.67° C | 62% | 1011.5 hPa | 0 mm | - | 0 W/m² | - |
| 1777786949 | 6.67° C | 60% | 1011.7 hPa | 0 mm | - | 0 W/m² | - |
| 1777786646 | 6.67° C | 62% | 1011.7 hPa | 0 mm | - | 0 W/m² | - |
| 1777786345 | 6.67° C | 61% | 1011.8 hPa | 0 mm | - | 0 W/m² | - |
| 1777786041 | 6.67° C | 61% | 1011.7 hPa | 0 mm | - | 0 W/m² | - |
| 1777785738 | 6.67° C | 60% | 1011.8 hPa | 0 mm | - | 0 W/m² | - |
| 1777785433 | 6.67° C | 62% | 1011.7 hPa | 0 mm | - | 0 W/m² | - |
| 1777785131 | 6.67° C | 61% | 1011.7 hPa | 0 mm | - | 0 W/m² | - |
| 1777784827 | 6.67° C | 61% | 1011.8 hPa | 0 mm | - | 0 W/m² | - |
| 1777784523 | 6.11° C | 62% | 1011.9 hPa | 0 mm | - | 0 W/m² | - |
| 1777784221 | 6.11° C | 67% | 1011.9 hPa | 0 mm | - | 0 W/m² | - |
| 1777783919 | 6.67° C | 67% | 1011.8 hPa | 0 mm | - | 0 W/m² | - |
* Rain latest hour (hover to see other rain measurements)
** Current wind speed in m/s (hover to see current wind gust speed)